TimeCST,TemperatureF,Dew PointF,Humidity,Sea Level PressureIn,VisibilityMPH,Wind Direction,Wind SpeedMPH,Gust SpeedMPH,PrecipitationIn,Events,Conditions,WindDirDegrees,DateUTC
12:14 AM,30.2,24.8,80,30.21,10.0,North,8.1,-,N/A,,Overcast,360,2012-11-09 06:14:00
12:34 AM,30.2,24.8,80,30.21,10.0,North,9.2,-,N/A,,Overcast,360,2012-11-09 06:34:00
12:54 AM,28.4,24.8,86,30.21,10.0,North,9.2,-,N/A,,Overcast,360,2012-11-09 06:54:00
1:14 AM,28.4,24.8,86,30.22,10.0,North,12.7,-,N/A,,Overcast,350,2012-11-09 07:14:00
1:34 AM,28.4,24.8,86,30.22,10.0,NNW,12.7,-,N/A,,Overcast,340,2012-11-09 07:34:00
1:54 AM,28.4,24.8,86,30.23,10.0,North,12.7,-,N/A,,Overcast,350,2012-11-09 07:54:00
2:14 AM,26.6,23.0,86,30.23,10.0,North,11.5,-,N/A,,Overcast,350,2012-11-09 08:14:00
2:34 AM,26.6,23.0,86,30.24,10.0,North,10.4,-,N/A,,Overcast,350,2012-11-09 08:34:00
2:54 AM,26.6,23.0,86,30.24,10.0,North,12.7,-,N/A,,Overcast,360,2012-11-09 08:54:00
3:14 AM,26.6,21.2,80,30.23,10.0,North,8.1,-,N/A,,Overcast,10,2012-11-09 09:14:00
3:34 AM,26.6,21.2,80,30.23,10.0,North,9.2,-,N/A,,Overcast,350,2012-11-09 09:34:00
3:54 AM,26.6,23.0,86,30.23,10.0,North,11.5,-,N/A,,Overcast,10,2012-11-09 09:54:00
4:14 AM,26.6,23.0,86,30.23,10.0,North,10.4,-,N/A,,Overcast,10,2012-11-09 10:14:00
4:34 AM,26.6,23.0,86,30.22,10.0,NNE,9.2,-,N/A,,Overcast,20,2012-11-09 10:34:00
4:54 AM,26.6,23.0,86,30.23,10.0,North,11.5,18.4,N/A,,Overcast,10,2012-11-09 10:54:00
5:14 AM,26.6,23.0,86,30.23,10.0,North,12.7,18.4,N/A,,Overcast,10,2012-11-09 11:14:00
5:54 AM,28.4,23.0,80,30.22,10.0,NNE,12.7,19.6,N/A,,Overcast,30,2012-11-09 11:54:00
6:14 AM,28.4,23.0,80,30.23,10.0,NNE,11.5,-,N/A,,Overcast,30,2012-11-09 12:14:00
6:34 AM,26.6,21.2,80,30.22,10.0,North,12.7,-,N/A,,Overcast,10,2012-11-09 12:34:00
6:54 AM,26.6,21.2,80,30.21,10.0,NNE,12.7,-,N/A,,Overcast,20,2012-11-09 12:54:00
7:14 AM,26.6,23.0,86,30.22,10.0,NE,9.2,-,N/A,,Overcast,40,2012-11-09 13:14:00
7:34 AM,26.6,23.0,86,30.22,10.0,NNE,11.5,18.4,N/A,,Overcast,20,2012-11-09 13:34:00
7:54 AM,28.4,23.0,80,30.23,10.0,North,13.8,-,N/A,,Overcast,10,2012-11-09 13:54:00
8:14 AM,26.6,23.0,86,30.22,10.0,NNE,11.5,17.3,N/A,,Overcast,20,2012-11-09 14:14:00
8:34 AM,28.4,24.8,86,30.22,10.0,NE,10.4,-,N/A,,Overcast,40,2012-11-09 14:34:00
8:54 AM,26.6,23.0,86,30.23,2.0,NNE,12.7,-,N/A,Snow,Light Snow,20,2012-11-09 14:54:00
9:14 AM,26.6,24.8,93,30.23,10.0,NNE,13.8,18.4,N/A,,Overcast,20,2012-11-09 15:14:00
9:34 AM,26.6,23.0,86,30.24,4.0,NE,11.5,-,N/A,,Overcast,40,2012-11-09 15:34:00
9:54 AM,28.4,23.0,80,30.24,10.0,NE,15.0,21.9,N/A,,Overcast,50,2012-11-09 15:54:00
10:14 AM,28.4,23.0,80,30.25,10.0,NE,13.8,19.6,N/A,,Overcast,50,2012-11-09 16:14:00
10:34 AM,28.4,23.0,80,30.24,10.0,NE,13.8,20.7,N/A,,Overcast,40,2012-11-09 16:34:00
10:54 AM,28.4,24.8,86,30.24,10.0,NE,12.7,18.4,N/A,,Overcast,40,2012-11-09 16:54:00
11:14 AM,28.4,24.8,86,30.24,10.0,NE,12.7,19.6,N/A,,Overcast,50,2012-11-09 17:14:00
11:34 AM,28.4,24.8,86,30.23,10.0,NE,13.8,19.6,N/A,,Overcast,50,2012-11-09 17:34:00
11:54 AM,28.4,24.8,86,30.23,10.0,NE,10.4,-,N/A,,Overcast,50,2012-11-09 17:54:00
12:14 PM,28.4,23.0,80,30.22,10.0,NNE,13.8,20.7,N/A,,Overcast,30,2012-11-09 18:14:00
12:34 PM,28.4,23.0,80,30.22,10.0,NE,17.3,-,N/A,,Overcast,40,2012-11-09 18:34:00
12:54 PM,28.4,23.0,80,30.21,10.0,NE,15.0,-,N/A,,Overcast,50,2012-11-09 18:54:00
1:14 PM,28.4,23.0,80,30.21,10.0,NE,13.8,23.0,N/A,,Overcast,50,2012-11-09 19:14:00
1:34 PM,28.4,23.0,80,30.21,10.0,NE,15.0,21.9,N/A,,Overcast,40,2012-11-09 19:34:00
1:54 PM,28.4,23.0,80,30.20,10.0,NE,11.5,20.7,N/A,,Overcast,40,2012-11-09 19:54:00
2:14 PM,28.4,23.0,80,30.20,10.0,NE,16.1,21.9,N/A,,Overcast,50,2012-11-09 20:14:00
2:33 PM,28.4,23.0,80,30.18,10.0,NE,15.0,21.9,N/A,,Overcast,50,2012-11-09 20:33:00
2:54 PM,28.4,21.2,74,30.19,10.0,NE,17.3,23.0,N/A,,Overcast,50,2012-11-09 20:54:00
3:14 PM,28.4,21.2,74,30.18,10.0,NE,13.8,21.9,N/A,,Overcast,40,2012-11-09 21:14:00
3:33 PM,28.4,21.2,74,30.18,10.0,NE,18.4,25.3,N/A,,Overcast,50,2012-11-09 21:33:00
3:54 PM,28.4,21.2,74,30.18,10.0,ENE,17.3,23.0,N/A,,Overcast,60,2012-11-09 21:54:00
4:14 PM,28.4,21.2,74,30.18,10.0,ENE,18.4,-,N/A,,Overcast,60,2012-11-09 22:14:00
4:33 PM,28.4,21.2,74,30.17,10.0,NE,18.4,23.0,N/A,,Overcast,50,2012-11-09 22:33:00
4:54 PM,28.4,21.2,74,30.19,10.0,ENE,17.3,21.9,N/A,,Overcast,60,2012-11-09 22:54:00
5:14 PM,28.4,19.4,69,30.18,10.0,ENE,17.3,-,N/A,,Overcast,70,2012-11-09 23:14:00
5:34 PM,28.4,21.2,74,30.18,10.0,ENE,17.3,25.3,N/A,,Overcast,60,2012-11-09 23:34:00
5:54 PM,28.4,19.4,69,30.18,10.0,ENE,18.4,24.2,N/A,,Overcast,60,2012-11-09 23:54:00
6:13 PM,28.4,21.2,74,30.17,10.0,ENE,13.8,23.0,N/A,,Overcast,60,2012-11-10 00:13:00
6:34 PM,28.4,19.4,69,30.17,10.0,ENE,16.1,24.2,N/A,,Overcast,70,2012-11-10 00:34:00
6:54 PM,28.4,21.2,74,30.16,10.0,ENE,18.4,27.6,N/A,,Overcast,60,2012-11-10 00:54:00
7:13 PM,30.2,19.4,64,30.15,10.0,ENE,19.6,23.0,N/A,,Overcast,70,2012-11-10 01:13:00
7:34 PM,28.4,19.4,69,30.14,10.0,ENE,21.9,25.3,N/A,,Overcast,70,2012-11-10 01:34:00
7:54 PM,28.4,19.4,69,30.14,10.0,ENE,18.4,25.3,N/A,,Overcast,70,2012-11-10 01:54:00
8:13 PM,28.4,19.4,69,30.15,10.0,ENE,19.6,23.0,N/A,,Overcast,70,2012-11-10 02:13:00
8:34 PM,28.4,19.4,69,30.14,10.0,East,18.4,24.2,N/A,,Overcast,80,2012-11-10 02:34:00
9:13 PM,28.4,19.4,69,30.13,10.0,East,18.4,26.5,N/A,,Overcast,80,2012-11-10 03:13:00
9:34 PM,28.4,19.4,69,30.14,10.0,ENE,17.3,26.5,N/A,,Overcast,70,2012-11-10 03:34:00
9:54 PM,28.4,19.4,69,30.13,10.0,East,21.9,26.5,N/A,,Overcast,80,2012-11-10 03:54:00
10:13 PM,28.4,19.4,69,30.12,10.0,East,15.0,-,N/A,,Overcast,80,2012-11-10 04:13:00
10:34 PM,28.4,19.4,69,30.12,10.0,East,16.1,26.5,N/A,,Overcast,80,2012-11-10 04:34:00
10:54 PM,28.4,19.4,69,30.10,10.0,East,20.7,27.6,N/A,,Mostly Cloudy,80,2012-11-10 04:54:00
11:13 PM,28.4,19.4,69,30.11,10.0,East,17.3,25.3,N/A,,Mostly Cloudy,90,2012-11-10 05:13:00
11:34 PM,28.4,19.4,69,30.10,10.0,East,18.4,24.2,N/A,,Scattered Clouds,80,2012-11-10 05:34:00
11:54 PM,28.4,19.4,69,30.09,10.0,East,17.3,25.3,N/A,,Overcast,80,2012-11-10 05:54:00